Regional Weather Roundup
Issued by NWS

Home | Current Version | Previous Version | Graphics & Text | Print | Product List | Glossary On
Versions: 1 2 3 4 5 6 7 8 9 10 11 12 13 14 15 16 17 18 19 20 21 22 23 24 25 26 27 28 29 30 31 32 33 34 35 36 37 38 39 40 41 42 43 44 45 46 47 48 49 50
000
ASUS43 KLMK 040610
RWRKY
KENTUCKY REGIONAL WEATHER ROUNDUP
NATIONAL WEATHER SERVICE LOUISVILLE KY
200 AM EDT SAT JUL 04 2015

NOTE "FAIR" INDICATES FEW OR NO CLOUDS BELOW 12,000 FEET
WITH NO SIGNIFICANT WEATHER AND/OR OBSTRUCTIONS TO VISIBILITY.

KYZ001>023-026-027-061>063-070>075-040700-
WESTERN AND SOUTH CENTRAL KENTUCKY

CITY           SKY/WX    TMP DP  RH WIND       PRES   REMARKS
PADUCAH        PTCLDY    70  68  93 CALM      29.91S
HENDERSON      MOCLDY    63  63 100 SW5       29.90S
OWENSBORO      NOT AVBL
HOPKINSVILLE   MOCLDY    71  69  94 SW3       29.91F
BOWLING GREEN  PTCLDY    71  68  90 SW6       29.91F
GLASGOW        CLOUDY    69  69 100 CALM      29.92F
$$

KYZ024-025-028>034-038-045-046-053-040700-
NORTH CENTRAL KENTUCKY

CITY           SKY/WX    TMP DP  RH WIND       PRES   REMARKS
LOUISVILLE/SDF CLOUDY    72  68  87 N7        29.90R
LOUISVILLE/LOU CLOUDY    71  68  90 NW3       29.91R FOG
FORT KNOX      CLOUDY    68  68 100 SW5       29.90S FOG
$$

KYZ035>037-039>044-047>052-055>060-089>105-040700-
NORTHEAST KENTUCKY

CITY           SKY/WX    TMP DP  RH WIND       PRES   REMARKS
LEXINGTON      FOG       68  67  96 SW3       29.91R VSB 3/4
COVINGTON      CLOUDY    68  64  87 NW3       29.92R
FRANKFORT      CLOUDY    69  67  93 CALM      29.90R FOG
$$

KYZ054-064>069-076>088-106>120-040700-
SOUTHEAST KENTUCKY

CITY           SKY/WX    TMP DP  RH WIND       PRES   REMARKS
JACKSON        CLOUDY    67  66  97 CALM      29.93R FOG
LONDON         CLOUDY    69  64  84 SW8       29.93F
SOMERSET       LGT RAIN  68  68 100 SW7       29.93F
MIDDLESBORO    CLOUDY    68  68 100 CALM      29.96F
MONTICELLO     MOCLDY    70  70 100 CALM      29.95F
$$




USA.gov is the U.S. government's official web portal to all federal, state and local government web resources and services.